Regional Weather Roundup
Issued by NWS

Home | Current Version | Previous Version | Text Only | Print | Product List | Glossary On
Versions: 1 2 3 4 5 6 7 8 9 10 11 12 13 14 15 16 17 18 19 20 21 22 23 24 25 26 27 28 29 30 31 32 33 34 35 36 37 38 39 40 41 42 43 44 45 46 47 48 49 50
000
ASUS45 KCYS 221210
RWRWY

WYOMING REGIONAL WEATHER ROUNDUP
NATIONAL WEATHER SERVICE CHEYENNE WY
600 AM MDT MON SEP 22 2014

NOTE:  "FAIR" INDICATES FEW OR NO CLOUDS BELOW 12,000 FEET
WITH NO SIGNIFICANT WEATHER AND/OR OBSTRUCTIONS TO VISIBILITY.

WYZ001-221300-
YELLOWSTONE NATIONAL PARK

CITY           SKY/WX    TMP DP  RH WIND       PRES   REMARKS
LK YELLOWSTONE   N/A     47  45  93 CALM      30.30S
6HR MIN TEMP:  47; 6HR MAX TEMP:  53; 6HR PCP:  0.14;

W YELLOWSTONE  NOT AVBL

$$
WYZ002>013-054>058-071-098>099-221300-
NORTHERN WYOMING

CITY           SKY/WX    TMP DP  RH WIND       PRES   REMARKS
JACKSON        CLOUDY    50  50 100 S3        30.23F
CODY             N/A    N/A N/A N/A MISG        N/A
GREYBULL       CLOUDY    59  47  64 W6        30.02F
6HR MIN TEMP:  57; 6HR MAX TEMP:  64;

WORLAND        MOCLDY    58  46  64 S7        30.02F
6HR MIN TEMP:  56; 6HR MAX TEMP:  67;

SHERIDAN       CLOUDY    51  46  83 SW5       30.03S
6HR MIN TEMP:  51; 6HR MAX TEMP:  62;

BUFFALO        MOCLDY    58  44  60 S8        30.06F
6HR MIN TEMP:  57; 6HR MAX TEMP:  64;

GILLETTE       CLOUDY    58  41  53 S13       30.08F
6HR MIN TEMP:  57; 6HR MAX TEMP:  59;

HULETT         FAIR      63  41  45 MISG      30.09
NEWCASTLE      FAIR      61  36  39 SE10G17   30.14

$$
WYZ014>020-022>026-101>103-221300-
CENTRAL WYOMING

CITY           SKY/WX    TMP DP  RH WIND       PRES   REMARKS
BIG PINEY      FOG       49  48  97 SW3       30.27S VSB 1
6HR MIN TEMP:  49; 6HR MAX TEMP:  53;

PINEDALE       PTSUNNY   45  45 100 CALM      30.27F
DUBOIS         FAIR      46  43  87 NW10      30.22F
LANDER         PTCLDY    54  42  64 CALM      30.11F
6HR MIN TEMP:  52; 6HR MAX TEMP:  64;

RIVERTON       PTCLDY    53  42  66 W10       30.12S
6HR MIN TEMP:  52; 6HR MAX TEMP:  63;

CASPER         PTCLDY    52  43  71 S6        30.14F
6HR MIN TEMP:  48; 6HR MAX TEMP:  59;

DOUGLAS        PTCLDY    52  40  63 S7        30.14F
6HR MIN TEMP:  51; 6HR MAX TEMP:  60;


$$
WYZ021-027>030-104>119-221300-
SOUTHERN WYOMING

CITY           SKY/WX    TMP DP  RH WIND       PRES   REMARKS
EVANSTON       MOCLDY    48  45  89 CALM      30.26S
6HR MIN TEMP:  45; 6HR MAX TEMP:  49; 6HR PCP:  0.02;

KEMMERER       LGT RAIN  46  46 100 N6        30.28S VSB 1/4
FORT BRIDGER   CLOUDY    46  46 100 S5        30.30R
ROCK SPRINGS   FOG       47  47 100 SW5       30.26F VSB 1/4
6HR MIN TEMP:  46; 6HR MAX TEMP:  51;

DIXON          FAIR      45  43  95 E3        30.30S
RAWLINS        PTCLDY    49  44  83 W3        30.26S
6HR MIN TEMP:  48; 6HR MAX TEMP:  56;

SARATOGA       FAIR      54  45  71 SE7       30.28R
LARAMIE        MOCLDY    48  45  89 SE10      30.25F
6HR MIN TEMP:  47; 6HR MAX TEMP:  53; 6HR PCP: TRACE;

CHEYENNE       CLOUDY    52  41  66 S9        30.22F
6HR MIN TEMP:  51; 6HR MAX TEMP:  55;

TORRINGTON     MOCLDY    55  42  61 E8        30.14F
6HR MIN TEMP:  53; 6HR MAX TEMP:  59;

PINE BLUFFS    FAIR      55  41  58 S14G20    30.20F

$$


USA.gov is the U.S. government's official web portal to all federal, state and local government web resources and services.